Tacoma, WA

8:38 PM PDT on May 21, 2018 (GMT -0700)
McChord Air Force Base

Weather History for KTCM - May, 2013

Change the Weather History Date:

Monday, May 27, 2013

  Actual Average Record
Temperature  
Mean Temperature 54 °F -  
Max Temperature 60 °F 64 °F 89 °F (2005)
Min Temperature 48 °F 45 °F 37 °F (1966)
Degree Days  
Heating Degree Days 11    
Growing Degree Days 4 (Base 50)    
Moisture  
Dew Point 53 °F    
Average Humidity 95    
Maximum Humidity 100    
Minimum Humidity 82    
Precipitation  
Precipitation 0.40 in - - ()
Sea Level Pressure  
Sea Level Pressure 29.83 in    
Wind  
Wind Speed 4 mph (SE)    
Max Wind Speed 12 mph    
Max Gust Speed -    
Visibility 6 miles    
Events Fog , Rain    
Averages and records for this station are not official NWS values.
T = Trace of Precipitation, MM = Missing Value Source: NWS Daily Summary

Daily Weather History Graph

Daily Weather History Graph

Search for Another Location

Airport or City:

Astronomy

May. 27, 2013 Rise Set
Actual Time 5:21 AM PDT 8:53 PM PDT
Civil Twilight 4:43 AM PDT 9:31 PM PDT
Nautical Twilight 3:52 AM PDT 10:22 PM PDT
Astronomical Twilight 2:45 AM PDT 11:30 PM PDT
Moon 11:31 PM PDT (5/27) 8:08 AM PDT (5/27)
Length of Visible Light 16h 48m
Length of Day
15h 31m
Waning Gibbous, 90% of the Moon is Illuminated
May 27
Waning Gibbous
May 31
Last Quarter
Jun 8
New
Jun 16
First Quarter
Jun 23
Full

Hourly Weather History & Observations

Time (PDT) Temp. Dew Point Humidity Pressure Visibility Wind Dir Wind Speed Gust Speed Precip Events Conditions
12:03 AM 53.6 °F 51.8 °F 94% 29.99 in 10.0 mi SSE 2.3 mph - N/A   Overcast
12:08 AM 53.6 °F 51.8 °F 94% 29.99 in 10.0 mi SSE 2.3 mph - N/A   Overcast
12:13 AM 53.6 °F 51.8 °F 94% 29.98 in 9.0 mi SE 1.2 mph - N/A   Overcast
12:18 AM 53.6 °F 53.6 °F 100% 29.98 in 9.0 mi SE 3.5 mph - N/A   Overcast
12:58 AM 52.7 °F 52.3 °F 99% 29.99 in 10.0 mi East 2.3 mph - N/A   Mostly Cloudy
1:23 AM 51.8 °F 51.8 °F 100% 29.97 in 1.8 mi East 1.2 mph - N/A   Mostly Cloudy
1:28 AM 51.8 °F 51.8 °F 100% 29.97 in 1.5 mi East 2.3 mph - N/A   Mostly Cloudy
1:33 AM 51.8 °F 50.0 °F 94% 29.96 in 1.2 mi East 3.5 mph - N/A   Scattered Clouds
1:38 AM 50.0 °F 50.0 °F 100% 29.96 in 1.5 mi East 3.5 mph - N/A   Scattered Clouds
1:43 AM 50.0 °F 50.0 °F 100% 29.96 in 4.0 mi East 3.5 mph - N/A   Scattered Clouds
1:53 AM 50.0 °F 50.0 °F 100% 29.96 in 2.5 mi East 2.3 mph - N/A   Partly Cloudy
1:58 AM 50.0 °F 50.0 °F 100% 29.97 in 1.0 mi East 2.3 mph - N/A   Clear
2:03 AM 50.0 °F 48.2 °F 94% 29.95 in 0.5 mi East 2.3 mph - N/A Fog Fog
2:08 AM 48.2 °F 48.2 °F 100% 29.96 in 0.5 mi East 1.2 mph - N/A Fog Fog
2:13 AM 48.2 °F 48.2 °F 100% 29.95 in 0.5 mi Calm Calm - N/A Fog Fog
2:33 AM 48.2 °F 48.2 °F 100% 29.95 in 0.2 mi Calm Calm - N/A Fog Fog
2:43 AM 48.2 °F 48.2 °F 100% 29.94 in 0.5 mi Calm Calm - N/A Fog Fog
2:48 AM 48.2 °F 48.2 °F 100% 29.94 in 0.5 mi Calm Calm - N/A Fog Fog
2:58 AM 48.4 °F 48.0 °F 99% 29.96 in 0.5 mi ENE 2.3 mph - N/A Fog Fog
3:08 AM 48.2 °F 48.2 °F 100% 29.93 in 0.2 mi ENE 2.3 mph - N/A Fog Fog
3:13 AM 48.2 °F 48.2 °F 100% 29.93 in 0.5 mi East 2.3 mph - N/A Fog Fog
3:23 AM 48.2 °F 48.2 °F 100% 29.93 in 0.5 mi East 1.2 mph - N/A Fog Fog
3:28 AM 48.2 °F 48.2 °F 100% 29.92 in 0.8 mi East 2.3 mph - N/A   Clear
3:43 AM 48.2 °F 46.4 °F 93% 29.91 in 0.8 mi East 1.2 mph - N/A   Clear
3:48 AM 48.2 °F 48.2 °F 100% 29.91 in 1.0 mi East 1.2 mph - N/A   Clear
3:53 AM 48.2 °F 48.2 °F 100% 29.91 in 1.5 mi East 2.3 mph - N/A   Partly Cloudy
3:58 AM 48.2 °F 48.2 °F 100% 29.92 in 2.0 mi East 2.3 mph - N/A   Scattered Clouds
4:03 AM 48.2 °F 48.2 °F 100% 29.91 in 3.0 mi East 1.2 mph - N/A   Mostly Cloudy
4:58 AM 49.1 °F 48.9 °F 99% 29.89 in 10.0 mi Calm Calm - N/A   Mostly Cloudy
5:33 AM 48.2 °F 48.2 °F 100% 29.87 in 3.0 mi Calm Calm - N/A   Mostly Cloudy
5:45 AM 48.2 °F 48.2 °F 100% 29.87 in 9.0 mi Calm Calm - N/A Rain Light Rain
5:58 AM 49.1 °F 48.9 °F 99% 29.87 in 9.0 mi East 1.2 mph - 0.00 in Rain Light Rain
6:58 AM 51.1 °F 51.1 °F 100% 29.84 in 10.0 mi East 3.5 mph - 0.01 in Rain Light Rain
7:58 AM 52.2 °F 52.2 °F 100% 29.83 in 10.0 mi East 3.5 mph - 0.01 in Rain Light Rain
8:58 AM 52.7 °F 52.7 °F 100% 29.79 in 10.0 mi ENE 4.6 mph - 0.04 in Rain Light Rain
9:58 AM 53.8 °F 53.6 °F 99% 29.78 in 10.0 mi ENE 5.8 mph - 0.02 in Rain Light Rain
10:58 AM 54.9 °F 54.5 °F 99% 29.75 in 10.0 mi East 4.6 mph - 0.03 in Rain Light Rain
11:58 AM 56.8 °F 54.5 °F 92% 29.74 in 8.0 mi East 4.6 mph - 0.04 in Rain Light Rain
12:58 PM 56.8 °F 53.4 °F 88% 29.73 in 10.0 mi SE 6.9 mph - 0.04 in Rain Light Rain
1:20 PM 57.2 °F 53.6 °F 88% 29.72 in 10.0 mi ESE 5.8 mph - N/A   Overcast
1:24 PM 57.2 °F 53.6 °F 88% 29.72 in 10.0 mi SE 5.8 mph - N/A Rain Light Rain
1:35 PM 57.2 °F 53.6 °F 88% 29.72 in 10.0 mi SE 6.9 mph - N/A   Overcast
1:58 PM 58.6 °F 54.1 °F 85% 29.73 in 10.0 mi SSE 9.2 mph - 0.00 in   Overcast
2:00 PM 59.0 °F 53.6 °F 82% 29.72 in 10.0 mi SSE 10.4 mph - N/A Rain Light Rain
2:58 PM 57.4 °F 54.7 °F 91% 29.74 in 10.0 mi SE 4.6 mph - 0.01 in Rain Light Rain
3:03 PM 57.2 °F 55.4 °F 94% 29.73 in 10.0 mi SSE 3.5 mph - N/A   Overcast
3:36 PM 60.8 °F 55.4 °F 82% 29.73 in 9.0 mi SE 9.2 mph - N/A Rain Light Rain
3:46 PM 59.0 °F 55.4 °F 88% 29.73 in 10.0 mi SE 5.8 mph - N/A   Overcast
3:58 PM 60.1 °F 55.0 °F 83% 29.74 in 10.0 mi SSE 6.9 mph - 0.00 in   Overcast
4:04 PM 59.0 °F 53.6 °F 82% 29.73 in 10.0 mi SSE 6.9 mph - N/A Rain Light Rain
4:14 PM 59.0 °F 55.4 °F 88% 29.73 in 4.0 mi South 9.2 mph - N/A   Overcast
4:15 PM 59.0 °F 55.4 °F 88% 29.73 in 4.0 mi South 6.9 mph - N/A Rain Light Rain
4:22 PM 59.0 °F 57.2 °F 94% 29.73 in 5.0 mi South 9.2 mph - N/A Rain Light Rain
4:26 PM 59.0 °F 55.4 °F 88% 29.73 in 7.0 mi SSE 5.8 mph - N/A   Overcast
4:58 PM 59.2 °F 56.1 °F 90% 29.73 in 10.0 mi Calm Calm - 0.01 in   Overcast
5:14 PM 59.0 °F 55.4 °F 88% 29.72 in 8.0 mi West 4.6 mph - N/A Rain Light Rain
5:19 PM 59.0 °F 55.4 °F 88% 29.73 in 2.0 mi West 8.1 mph - N/A Rain Heavy Rain
5:24 PM 59.0 °F 57.2 °F 94% 29.74 in 1.0 mi West 10.4 mph - N/A Rain Heavy Rain
5:29 PM 57.2 °F 57.2 °F 100% 29.73 in 1.0 mi WSW 6.9 mph - N/A Rain Light Rain
5:34 PM 57.2 °F 57.2 °F 100% 29.74 in 2.5 mi SW 6.9 mph - N/A Rain Light Rain
5:39 PM 57.2 °F 57.2 °F 100% 29.74 in 6.0 mi SW 6.9 mph - N/A Rain Light Rain
5:44 PM 57.2 °F 57.2 °F 100% 29.74 in 4.0 mi Variable 3.5 mph - N/A Rain Light Rain
5:49 PM 57.2 °F 57.2 °F 100% 29.74 in 5.0 mi SSW 5.8 mph - N/A Rain Light Rain
5:51 PM 57.2 °F 57.2 °F 100% 29.74 in 6.0 mi SSW 6.9 mph - N/A Rain Light Rain
5:58 PM 57.7 °F 56.5 °F 96% 29.75 in 9.0 mi South 6.9 mph - 0.14 in Rain Light Rain
6:07 PM 57.2 °F 57.2 °F 100% 29.75 in 9.0 mi South 6.9 mph - N/A   Overcast
6:09 PM 57.2 °F 57.2 °F 100% 29.75 in 8.0 mi South 8.1 mph - N/A Rain Light Rain
6:14 PM 57.2 °F 57.2 °F 100% 29.75 in 3.0 mi South 6.9 mph - N/A Rain Light Rain
6:19 PM 57.2 °F 57.2 °F 100% 29.75 in 2.0 mi South 5.8 mph - N/A Rain Rain
6:24 PM 57.2 °F 57.2 °F 100% 29.74 in 3.0 mi SSW 5.8 mph - N/A Rain Light Rain
6:32 PM 57.2 °F 55.4 °F 94% 29.74 in 10.0 mi SSW 10.4 mph - N/A   Overcast
6:58 PM 58.5 °F 54.3 °F 86% 29.76 in 10.0 mi SW 11.5 mph - 0.04 in   Mostly Cloudy
7:58 PM 57.0 °F 52.7 °F 85% 29.77 in 10.0 mi SW 6.9 mph - 0.01 in   Overcast
8:58 PM 56.1 °F 53.4 °F 91% 29.78 in 10.0 mi SW 5.8 mph - N/A   Overcast
9:58 PM 54.9 °F 53.6 °F 96% 29.81 in 10.0 mi South 5.8 mph - N/A   Overcast
10:58 PM 54.3 °F 52.2 °F 92% 29.81 in 10.0 mi SSW 5.8 mph - N/A   Overcast
11:58 PM 53.6 °F 52.3 °F 95% 29.82 in 10.0 mi SSW 5.8 mph - N/A   Overcast